Location: Chacón
(10.5789°N, 66.9317°W)
Time: 05:29:18
(UTC+00:00)

Sakura Rocket - Pass Details

Date: 14 August 2024
Orbit: 475 x 1710 km, 28.7° (Epoch: 16 September)

Event Time Altitude Azimuth Distance (km) Brightness Sun altitude
Rises 00:54:45 0° 256° (WSW) 2,711 7.1 -30.6°
Reaches altitude 10° 00:57:14 10° 265° (W) 1,719 6.0 -31.2°
Enters shadow 00:58:26 18° 274° (W) 1,271 5.3 -31.4°
